[[{"header":{"parameterUnit":"m.s-1","parameterCategory":1,"la1":30.2991,"la2":30.254,"lo1":-89.0895,"lo2":-89.0444,"dy":0.0017,"dx":0.0017,"nx":28,"ny":28,"refTime":"2023-08-21T03:00:00:Z","depth":0,"parameterNumber":2,"parameterNumberName":"U-component_of_WINDS"},"data":[0,0,0,0,0,0,0,0,0,0,0,0,0,0,0,0,0,0,0,0,0,0,0,0,0,0,0,0,0,0,0,0,0,0,0,0,0,0,0,0,0,0,0,0,0,0,0,0,0,0,0,0,0,0,0,0,0,0,-2.7638,-2.7638,0,-2.7625,-2.7625,-2.7625,-2.753,-2.7528,-2.7526,-2.7523,-2.7511,-2.7513,-2.7515,0,0,0,0,0,0,0,0,0,0,0,0,0,-2.7581,-2.7583,-2.7638,-2.7638,-2.7638,-2.7625,-2.7625,-2.7625,-2.7531,-2.7528,-2.7525,-2.7522,-2.7511,-2.7513,-2.7515,0,0,0,0,0,0,0,0,0,0,0,0,0,-2.7591,-2.7583,-2.7638,-2.7589,-2.7585,-2.7625,-2.7625,-2.7625,-2.7531,-2.7528,-2.7524,-2.7521,-2.751,-2.7513,-2.7515,-2.7602,0,0,-2.7524,-2.7525,0,0,0,0,0,0,0,0,-2.7591,-2.7593,-2.7596,-2.7593,-2.7588,-2.7576,-2.76,-2.7617,-2.7532,-2.7552,-2.7523,-2.7519,-2.7536,-2.7536,-2.7541,-2.7602,-2.7601,-2.7524,-2.7526,-2.7527,-2.7528,0,0,0,0,0,0,0,-2.759,-2.7593,-2.7633,-2.7597,-2.7591,-2.7568,-2.7566,-2.7603,-2.7563,-2.755,-2.7543,-2.7542,-2.7533,-2.7539,-2.754,-2.7601,-2.7524,-2.7527,-2.7528,-2.7529,-2.7732,-2.7735,0,0,0,0,0,0,-2.7596,-2.7593,-2.7633,-2.7632,-2.758,-2.7572,-2.7569,-2.7583,-2.7563,-2.7556,-2.7545,-2.7538,-2.7536,-2.7537,-2.754,-2.7639,-2.7527,-2.753,-2.7531,-2.7728,-2.7732,-2.7736,0,0,0,0,0,0,-2.7595,-2.7601,-2.7634,-2.7611,-2.7613,-2.7577,-2.7593,-2.7585,-2.7591,-2.756,-2.7552,-2.7559,-2.7533,-2.7536,-2.7587,-2.7638,-2.7531,-2.7533,-2.7723,-2.7729,-2.7734,-2.784,0,0,0,0,0,0,-2.7594,-2.7601,-2.7633,-2.7612,-2.7615,-2.7682,-2.7596,-2.7587,-2.7596,-2.7586,-2.757,-2.7565,-2.7531,-2.7584,-2.759,-2.7639,-2.7536,-2.7719,-2.7726,-2.7733,-2.7832,-2.7848,-2.7863,0,0,0,0,0,-2.7592,-2.7664,-2.7635,-2.7641,-2.7655,-2.7685,-2.7686,-2.7646,-2.76,-2.7633,-2.7612,-2.7565,-2.7631,-2.759,-2.7596,-2.7647,-2.7715,-2.7724,-2.7732,-2.7825,-2.7845,-2.7862,0,0,0,0,0,0,-2.7692,-2.766,-2.7628,-2.7695,-2.7693,-2.7669,-2.7708,-2.7669,-2.768,-2.767,-2.762,-2.7617,-2.7676,-2.7667,-2.7621,-2.773,-2.7665,-2.7675,-2.7734,-2.7753,-2.7768,-2.7768,-2.7538,0,0,0,0,0,-2.7722,-2.7748,-2.7719,-2.7781,-2.7782,-2.7746,-2.7757,-2.7726,-2.7722,-2.7721,-2.7704,-2.7703,-2.7723,-2.7737,-2.7754,-2.783,-2.7825,-2.7869,-2.7884,-2.7897,-2.7906,-2.7945,-2.7964,-2.7764,-2.7764,-2.7764,0,0,-2.7783,-2.7769,-2.7789,-2.7801,-2.7796,-2.7824,-2.7746,-2.7779,-2.78,-2.7726,-2.7773,-2.7762,-2.7756,-2.782,-2.7848,-2.7814,-2.796,-2.7908,-2.7918,-2.792,-2.7955,-2.7974,-2.7991,-2.7769,-2.7768,-2.7768,0,0,-2.791,-2.7903,-2.7953,-2.7949,-2.7942,-2.7918,-2.793,-2.7912,-2.7901,-2.7947,-2.7892,-2.7917,-2.7953,-2.7951,-2.7955,-2.8082,-2.8038,-2.8089,-2.8169,-2.8208,-2.8224,-2.8237,-2.8282,-2.8298,-2.8098,-2.8098,-2.8099,0,-2.7987,-2.8028,-2.7984,-2.8021,-2.8028,-2.7962,-2.8012,-2.8011,-2.8011,-2.8017,-2.798,-2.8023,-2.8015,-2.8078,-2.8109,-2.8114,-2.8127,-2.809,-2.8225,-2.8238,-2.825,-2.8292,-2.8309,-2.8104,-2.8104,-2.8103,-2.8103,0,-2.8124,-2.8153,-2.8195,-2.8195,-2.8206,-2.8251,-2.8213,-2.823,-2.8198,-2.8177,-2.8226,-2.8214,-2.8227,-2.824,-2.8209,-2.8298,-2.8277,-2.8234,-2.8167,-2.8276,-2.8315,-2.833,-2.8113,-2.8111,-2.8109,-2.8108,0,0,-2.8312,-2.8287,-2.8303,-2.8302,-2.829,-2.8312,-2.8353,-2.8366,-2.8381,-2.8383,-2.8416,-2.8449,-2.8408,-2.8412,-2.8381,-2.8415,-2.8516,-2.8367,-2.8366,-2.8394,-2.8612,-2.8645,-2.8664,-2.8487,-2.849,-2.8493,-2.8612,0,-2.8433,-2.8501,-2.8462,-2.8536,-2.8562,-2.85,-2.8536,-2.8533,-2.8515,-2.8535,-2.8515,-2.8538,-2.8483,-2.8485,-2.8517,-2.8497,-2.8559,-2.8488,-2.8517,-2.8519,-2.852,-2.8684,-2.8719,-2.8832,-2.8627,-2.863,-2.8632,0,-2.8583,-2.8591,-2.8668,-2.865,-2.866,-2.8692,-2.87,-2.872,-2.8715,-2.87,-2.8706,-2.8666,-2.8705,-2.8641,-2.8694,-2.8647,-2.8657,-2.8649,-2.8652,-2.8653,-2.8581,-2.8688,-2.8868,-2.8885,-2.8655,-2.8653,-2.8651,0,-2.8712,-2.8742,-2.8791,-2.8793,-2.8774,-2.8798,-2.8791,-2.8783,-2.8793,-2.88,-2.8806,-2.8819,-2.8825,-2.8836,-2.8801,-2.8757,-2.8859,-2.8792,-2.8847,-2.8848,-2.887,-2.8869,-2.9053,-2.8879,-2.8878,-2.8878,-2.8878,0,-2.8851,-2.89,-2.8849,-2.8879,-2.8932,-2.8887,-2.8941,-2.8928,-2.8921,-2.8948,-2.8895,-2.8922,-2.8874,-2.8896,-2.8869,-2.8917,-2.892,-2.8909,-2.8901,-2.8913,-2.8915,-2.8918,-2.8909,-2.8883,-2.8882,-2.8881,-2.888,0,-2.9004,-2.8972,-2.9021,-2.8999,-2.8994,-2.9035,-2.9015,-2.9043,-2.9021,-2.9056,-2.9061,-2.9028,-2.9051,-2.9017,-2.9037,-2.9018,-2.9084,-2.9065,-2.9086,-2.908,-2.9137,-2.9132,-2.9329,-2.9352,-2.9164,-2.9166,-2.9167,0,-2.9094,-2.913,-2.9112,-2.9126,-2.9122,-2.9145,-2.9155,-2.9112,-2.9124,-2.9121,-2.9149,-2.9167,-2.9179,-2.9219,-2.9197,-2.9211,-2.9191,-2.9259,-2.9193,-2.9204,-2.9192,-2.919,-2.9193,-2.9273,-2.9275,-2.9277,-2.9278,0,-2.9258,-2.924,-2.9256,-2.9267,-2.9279,-2.9286,-2.9288,-2.9303,-2.9258,-2.9275,-2.9297,-2.9306,-2.9326,-2.9345,-2.9353,-2.9346,-2.9306,-2.93,-2.9313,-2.9325,-2.9336,-2.933,-2.9122,-2.9295,-2.9293,-2.9292,-2.9291,-2.9291,-2.9382,-2.9411,-2.9402,-2.9421,-2.9419,-2.9422,-2.9446,-2.9428,-2.9446,-2.9458,-2.9432,-2.946,-2.9454,-2.9462,-2.946,-2.9482,-2.9452,-2.9472,-2.9476,-2.9482,-2.9491,-2.9333,-2.9483,-2.9483,-2.9482,-2.9482,-2.9481,0,-2.9542,-2.9533,-2.9552,-2.9556,-2.9572,-2.9531,-2.9532,-2.9547,-2.9573,-2.9571,-2.9584,-2.9609,-2.9627,-2.9607,-2.9621,-2.9643,-2.9624,-2.9648,-2.9645,-2.9645,-2.9517,-2.9503,-2.9663,-2.9663,-2.9662,-2.9662,-2.9662,-2.9662,-2.9628,-2.9674,-2.9655,-2.97,-2.9691,-2.9718,-2.9722,-2.9725,-2.9723,-2.9754,-2.9768,-2.9754,-2.9744,-2.9757,-2.9772,-2.9766,-2.9773,-2.9804,-2.9791,-2.9671,-2.9654,-2.9637,-2.9624,-2.9806,-2.9806,-2.9916,-2.9918,-2.9918]},{"header":{"parameterUnit":"m.s-1","parameterCategory":1,"la1":30.2991,"la2":30.254,"lo1":-89.0895,"lo2":-89.0444,"dy":0.0017,"dx":0.0017,"nx":28,"ny":28,"refTime":"2023-08-21T03:00:00:Z","depth":0,"parameterNumber":3,"parameterNumberName":"V-component_of_WINDS"},"data":[0,0,0,0,0,0,0,0,0,0,0,0,0,0,0,0,0,0,0,0,0,0,0,0,0,0,0,0,0,0,0,0,0,0,0,0,0,0,0,0,0,0,0,0,0,0,0,0,0,0,0,0,0,0,0,0,0,0,1.0937,1.0937,0,1.0989,1.099,1.0991,1.0991,1.0991,1.099,1.099,1.104,1.1042,1.1044,0,0,0,0,0,0,0,0,0,0,0,0,0,1.0835,1.0836,1.0937,1.0937,1.0938,1.0989,1.099,1.0991,1.0992,1.0991,1.099,1.0989,1.1039,1.1042,1.1044,0,0,0,0,0,0,0,0,0,0,0,0,0,1.0882,1.0837,1.0937,1.0945,1.0946,1.0989,1.099,1.0991,1.0992,1.0991,1.099,1.0989,1.1039,1.1041,1.1044,1.1082,0,0,1.1053,1.1054,0,0,0,0,0,0,0,0,1.0879,1.0886,1.0943,1.0944,1.0946,1.0983,1.0972,1.1021,1.0992,1.0974,1.099,1.0988,1.1022,1.1026,1.1038,1.1084,1.1086,1.1053,1.1055,1.1056,1.1057,0,0,0,0,0,0,0,1.0876,1.0884,1.0957,1.0944,1.0946,1.0945,1.0951,1.0982,1.1003,1.0976,1.0976,1.0982,1.1022,1.1035,1.1039,1.1087,1.1053,1.1056,1.1058,1.1059,1.1167,1.1168,0,0,0,0,0,0,1.0872,1.0881,1.0956,1.0959,1.091,1.0948,1.0954,1.0972,1.1002,1.1006,1.0983,1.0982,1.103,1.1035,1.1041,1.1087,1.1056,1.1059,1.1061,1.1166,1.1168,1.1169,0,0,0,0,0,0,1.0869,1.0878,1.0954,1.092,1.093,1.095,1.0971,1.0974,1.0986,1.1008,1.1011,1.0993,1.103,1.1037,1.1072,1.1088,1.1061,1.1063,1.1165,1.1167,1.1168,1.1179,0,0,0,0,0,0,1.0867,1.0878,1.0892,1.092,1.0932,1.0985,1.0972,1.0975,1.0992,1.0991,1.1018,1.1021,1.103,1.1068,1.1075,1.1092,1.1065,1.1163,1.1166,1.1168,1.1177,1.1181,1.1184,0,0,0,0,0,1.0863,1.0892,1.0893,1.0902,1.0951,1.0986,1.0992,1.1002,1.0993,1.1008,1.1022,1.102,1.1086,1.1071,1.1079,1.1098,1.1162,1.1165,1.1167,1.1176,1.118,1.1184,0,0,0,0,0,0,1.0864,1.0896,1.0897,1.0937,1.0959,1.0986,1.1005,1.1006,1.103,1.1028,1.1039,1.1045,1.108,1.1092,1.1076,1.1136,1.1123,1.1127,1.1126,1.1131,1.1134,1.113,1.1068,0,0,0,0,0,1.087,1.0896,1.0922,1.0955,1.0966,1.0984,1.0999,1.1005,1.1028,1.1037,1.1053,1.1074,1.11,1.1116,1.114,1.1179,1.1185,1.1196,1.1199,1.1202,1.1205,1.1227,1.1232,1.1177,1.1177,1.1177,0,0,1.088,1.0901,1.0917,1.0956,1.0973,1.1,1.0991,1.102,1.1039,1.104,1.1075,1.1088,1.1112,1.115,1.1167,1.1161,1.1222,1.1205,1.1207,1.1209,1.123,1.1235,1.124,1.1179,1.1179,1.1178,0,0,1.0913,1.0931,1.0961,1.0979,1.1006,1.1018,1.1025,1.1053,1.1062,1.1097,1.1099,1.1122,1.1165,1.1183,1.1197,1.1238,1.1237,1.1246,1.1263,1.1284,1.1288,1.1292,1.1306,1.1311,1.1249,1.1249,1.1249,0,1.0922,1.0963,1.0975,1.1004,1.1021,1.1026,1.1055,1.1072,1.1105,1.1116,1.111,1.1165,1.1182,1.1223,1.1233,1.1245,1.1253,1.1242,1.1287,1.1291,1.1295,1.1308,1.1314,1.125,1.125,1.125,1.125,0,1.0973,1.1002,1.1022,1.1056,1.1075,1.1104,1.112,1.1138,1.1143,1.1155,1.1191,1.1212,1.1241,1.1251,1.1256,1.1294,1.1289,1.1285,1.1272,1.13,1.1313,1.1319,1.1251,1.1251,1.1251,1.125,0,0,1.1006,1.1048,1.1055,1.1071,1.1102,1.1124,1.1153,1.1183,1.1198,1.1221,1.1246,1.1283,1.128,1.1296,1.1303,1.1321,1.1352,1.1314,1.1315,1.132,1.1395,1.1398,1.1404,1.1353,1.1354,1.1354,1.1393,0,1.1042,1.1095,1.1108,1.1153,1.118,1.1185,1.121,1.1232,1.1244,1.1268,1.1281,1.1308,1.1301,1.1311,1.133,1.1344,1.1367,1.1342,1.1374,1.1375,1.1367,1.1411,1.1414,1.1449,1.1398,1.1399,1.14,0,1.1091,1.1117,1.1165,1.1193,1.1205,1.1228,1.1256,1.1279,1.1304,1.1312,1.1331,1.1336,1.1366,1.1353,1.1394,1.1377,1.1391,1.14,1.1402,1.1404,1.1389,1.1414,1.1461,1.1466,1.1408,1.1408,1.1407,0,1.111,1.1157,1.1192,1.1205,1.1239,1.1255,1.127,1.1294,1.1311,1.1336,1.1347,1.1375,1.139,1.1411,1.1423,1.1412,1.1463,1.1451,1.147,1.147,1.148,1.1479,1.1529,1.149,1.149,1.149,1.149,0,1.1148,1.1177,1.1201,1.1223,1.1256,1.127,1.1301,1.1316,1.1337,1.1361,1.1367,1.1389,1.1405,1.1429,1.1439,1.1471,1.1478,1.1485,1.1487,1.1484,1.1483,1.1493,1.149,1.1491,1.1491,1.1491,1.149,0,1.1174,1.1192,1.123,1.126,1.1269,1.1291,1.1317,1.1337,1.1351,1.1381,1.1389,1.141,1.1438,1.1453,1.1489,1.1495,1.1532,1.1533,1.1524,1.1525,1.1543,1.1541,1.16,1.1609,1.1565,1.1566,1.1566,0,1.1197,1.122,1.1253,1.127,1.1286,1.1313,1.1331,1.1346,1.1365,1.1395,1.1412,1.1442,1.1466,1.1512,1.1529,1.1557,1.1558,1.1577,1.1562,1.1559,1.1558,1.1556,1.1558,1.1579,1.158,1.158,1.158,0,1.1236,1.1244,1.127,1.13,1.1322,1.1346,1.1369,1.1383,1.1402,1.1422,1.1452,1.1471,1.1509,1.1538,1.1567,1.1581,1.1584,1.1585,1.1591,1.1588,1.1582,1.1585,1.1531,1.1583,1.1583,1.1583,1.1583,1.1583,1.1261,1.1282,1.1308,1.1338,1.1358,1.138,1.1401,1.1418,1.1444,1.1476,1.1483,1.1515,1.154,1.1579,1.1595,1.162,1.1615,1.1624,1.1626,1.1627,1.1628,1.1579,1.1625,1.1625,1.1625,1.1625,1.1625,0,1.1299,1.1317,1.1344,1.1378,1.1401,1.1403,1.143,1.1449,1.1477,1.15,1.1525,1.156,1.1588,1.1609,1.1638,1.1654,1.1656,1.1661,1.166,1.1663,1.163,1.1622,1.1659,1.1659,1.1659,1.1659,1.1659,1.1659,1.1322,1.1357,1.1368,1.1414,1.1431,1.1463,1.1478,1.1499,1.1517,1.1557,1.1581,1.1595,1.1617,1.1648,1.1674,1.168,1.169,1.1695,1.17,1.1669,1.1665,1.1662,1.1654,1.1697,1.1697,1.173,1.1731,1.1731]}]]